Home   Weather   Calgary   Past weeks

Flag for Canada Past Weather in Calgary, Alberta, Canada — Yesterday and Last 2 Weeks

Now
-8 °F

Passing clouds.


Feels Like: -28 °F
Forecast: -13 / -1 °F
Wind: 13 mph from Northwest

Location: Calgary International

Current Time: Dec 7, 2016 at 3:51:46 am

Latest Report: Dec 7, 2016 at 3:00 am


Visibility: 15 mi

Pressure: 30.71 "Hg (26.58 "Hg at 1063m altitude)

Humidity: 64%

Dew Point: -17 °F

Location of CalgaryLocation

Past Weather in Calgary — Graph

°F

Calgary Temperature Yesterday

Maximum temperature yesterday: 0 °F (at 12:00 am)
Minimum temperature yesterday: -6 °F (at 5:00 am)
Average temperature yesterday: -3 °F

High & Low Weather Summary for the Past Weeks

 TemperatureHumidityPressure
High48 °F (Nov 25, 12:00 pm)100% (Nov 22, 9:00 pm)30.70 "Hg (Nov 22, 9:00 pm)
Low-8 °F (Dec 7, 12:00 am)24% (Dec 3, 2:00 pm)29.41 "Hg (Nov 27, 3:00 pm)
Average24 °F70%29.95 "Hg
* Reported Nov 22 2:00 am — Dec 7 2:00 am, Calgary, Weather by CustomWeather, © 2016

Note: Actual official high and low records may vary slightly from our data, if they occured in-between our weather recording intervals... More about our weather records

Advertising

Calgary Weather History for the Previous 24 Hours

Scroll right to see more
 ConditionsComfort  
Time TempWeatherWind HumidityBarometerVisibility
2:00 am
Wed, Dec 7
-8 °FPassing clouds.8 mph64%30.70 "Hg15 mi
1:00 am-8 °FPassing clouds.10 mph70%30.68 "Hg15 mi
12:00 am-8 °FPassing clouds.10 mph70%30.66 "Hg15 mi
11:00 pm
Tue, Dec 6
-6 °FOvercast.12 mph64%30.64 "Hg10 mi
10:00 pm-4 °FLight snow. Passing clouds.9 mph71%30.63 "Hg10 mi
9:00 pm-2 °FLight snow. Passing clouds.17 mph65%30.62 "Hg10 mi
8:00 pm-2 °FSnow flurries. Partly cloudy.14 mph65%30.61 "Hg10 mi
7:00 pm-2 °FOvercast.12 mph65%30.59 "Hg15 mi
5:00 pm-2 °FPassing clouds.13 mph65%30.56 "Hg15 mi
4:00 pm-4 °FBroken clouds.12 mph65%30.53 "Hg15 mi
3:00 pm-2 °FSnow flurries. Partly sunny.15 mph65%30.50 "Hg6 mi
2:00 pm0 °FSnow flurries. Broken clouds.17 mph60%30.49 "Hg6 mi
12:00 pm-2 °FSnow flurries. Broken clouds.15 mph59%30.50 "Hg6 mi
10:00 am-6 °FPartly sunny.10 mph64%30.51 "Hg15 mi
9:00 am-6 °FSnow flurries. Mostly cloudy.14 mph59%30.50 "Hg15 mi
8:00 am-6 °FMostly cloudy.13 mph59%30.50 "Hg15 mi
7:00 am-6 °FLight snow. Passing clouds.16 mph64%30.50 "Hg10 mi
6:00 am-6 °FPassing clouds.16 mph64%30.49 "Hg10 mi
5:00 am-6 °FPassing clouds.15 mph64%30.48 "Hg10 mi
4:00 am-4 °FPassing clouds.14 mph65%30.46 "Hg15 mi
3:00 am-2 °FOvercast.21 mph59%30.45 "Hg15 mi
Weather by CustomWeather, © 2016

See weather overviewHow to use our weather pages